Wind_Speed
50 44 41 37 38 37 36 37 43 48 50 64 82 91 81 65 80 75 67 73 67 69 70 69 70 69 69 68 66 60 57 56 52 49 47 45 41 35 33 27 29 27 42 38 32 36 32
42 34 35 35 37 36 35 35 42 45 45 55 74 91 89 59 79 71 75 76 76 61 69 68 69 69 67 66 63 61 59 56 52 49 47 45 44 38 38 33 34 29 24 26 37 35 37
36 35 36 37 37 37 36 36 42 44 43 42 51 79 85 68 73 69 67 61 71 56 61 68 65 66 65 62 63 63 62 58 53 49 46 44 45 44 40 35 33 28 31 26 32 36 41
38 37 40 41 39 36 37 37 41 40 42 42 41 74 90 64 74 69 67 59 63 56 52 60 64 65 65 64 65 64 63 60 58 54 50 47 47 46 43 39 35 34 35 31 24 30 42
41 38 42 43 41 38 37 37 39 40 45 45 51 73 93 76 69 65 68 66 56 46 50 56 64 65 66 66 65 64 64 61 58 54 52 49 49 49 44 43 41 41 38 28 25 23 34
42 40 42 41 41 38 35 38 38 43 50 45 43 65 84 65 58 65 67 63 61 61 61 48 56 69 67 64 62 64 64 62 60 57 55 54 53 51 51 48 44 46 36 27 27 25 25
42 40 38 41 43 41 41 37 37 45 44 48 50 56 87 72 56 62 67 67 73 71 70 80 63 52 58 62 64 64 63 63 63 60 52 58 56 51 47 47 45 36 32 33 28 32 30
42 41 41 35 42 42 41 43 40 46 51 47 56 56 70 66 69 65 66 70 57 54 55 55 51 57 56 61 65 67 64 63 62 61 65 60 57 50 50 52 44 41 39 37 35 37 30
41 40 38 41 37 41 40 40 42 52 58 40 64 66 66 61 56 68 69 64 71 65 59 54 70 64 58 60 63 64 65 63 60 60 58 57 55 51 51 51 46 42 36 33 35 34 36
40 38 38 38 36 41 40 40 45 52 57 42 70 67 68 64 70 72 69 73 72 66 69 72 69 72 68 68 67 64 63 62 61 58 55 54 55 51 49 49 48 51 49 42 31 33 38
42 40 41 38 38 42 41 40 47 52 54 47 70 68 68 67 76 74 71 70 68 68 76 78 75 69 65 67 62 66 64 62 59 57 58 56 54 50 47 46 46 48 46 37 42 44 40
43 40 39 29 38 42 42 41 51 52 54 50 64 66 57 75 73 73 72 73 70 74 69 80 74 73 74 72 70 68 65 62 61 61 59 57 55 52 49 47 46 45 43 39 40 45 51
43 38 39 33 36 42 43 41 49 51 52 53 65 67 63 69 67 71 80 79 78 91 81 60 76 77 77 71 70 71 64 60 63 60 62 58 57 55 54 52 49 48 46 45 43 45 50
41 44 30 38 39 41 39 39 44 44 48 52 70 62 65 70 68 78 75 75 85 86 82 73 68 73 78 75 70 67 69 64 56 55 54 56 55 56 54 53 49 48 47 48 48 47 45
41 39 27 38 40 40 39 37 39 41 46 58 76 67 70 72 71 77 80 79 89 81 83 71 71 74 70 74 70 67 61 59 55 51 52 52 55 55 56 54 53 53 52 51 52 51 49
37 39 25 29 40 40 39 36 36 41 45 62 71 67 67 75 73 80 82 87 82 86 80 73 65 63 64 69 62 62 61 58 57 55 58 56 61 60 58 61 61 55 52 51 51 51 51
36 33 33 32 37 41 38 37 35 36 41 50 72 69 68 75 78 81 79 79 81 78 83 78 66 54 60 56 58 60 53 54 55 60 64 63 60 58 63 58 56 56 56 55 54 54 54
39 34 29 28 32 39 39 37 37 34 40 47 59 60 73 73 71 77 70 79 78 80 75 73 71 65 56 44 54 61 52 54 61 62 63 65 64 62 57 58 56 52 51 52 56 54 52
38 38 37 28 26 32 36 38 37 34 39 45 48 65 68 66 55 78 66 77 76 78 71 69 67 67 62 61 49 63 58 56 64 62 62 61 62 59 58 58 61 61 59 56 50 49 48
39 38 36 32 30 29 29 37 36 34 36 41 48 63 71 62 50 66 74 70 82 73 73 66 61 64 62 66 66 56 53 49 56 62 59 54 53 52 52 49 45 44 42 38 38 42 41
43 38 41 29 36 33 32 29 34 35 34 35 44 58 65 51 54 64 75 81 79 71 70 64 63 61 61 62 59 55 57 49 51 51 55 57 53 51 51 49 47 43 40 40 44 45 47
36 42 35 37 35 33 31 27 28 34 34 35 40 47 61 56 53 63 74 75 76 70 66 64 62 59 52 50 53 60 62 56 55 59 50 50 51 51 52 48 48 49 50 51 48 48 50
26 38 33 37 38 32 30 25 23 28 34 35 39 43 52 57 53 57 74 74 76 66 63 61 55 51 48 51 47 45 41 42 47 50 48 47 48 47 45 47 48 53 49 51 49 50 48
27 37 39 38 39 34 32 26 22 25 31 36 38 39 44 56 63 53 67 72 73 66 62 58 53 51 52 46 49 49 53 48 47 43 44 45 46 46 45 45 49 41 47 46 47 46 47
32 38 39 43 44 38 33 29 27 23 23 34 36 37 40 49 66 57 56 72 74 70 65 59 50 53 56 51 46 49 55 53 43 40 40 42 48 50 50 51 46 46 48 51 51 48 47
24 35 41 37 44 47 42 37 33 30 24 27 35 35 38 44 56 59 51 66 69 67 63 61 57 53 51 50 47 45 46 46 45 46 44 43 45 46 46 45 44 47 50 52 49 40 42
27 36 34 36 37 44 41 36 32 32 27 26 32 33 36 41 48 59 56 54 65 71 65 62 59 57 54 54 51 47 41 43 43 41 42 45 49 46 45 44 46 48 51 51 48 38 38
26 37 37 32 32 38 40 37 30 28 26 25 31 31 34 40 44 54 62 57 55 67 72 64 63 62 58 53 49 43 39 41 42 40 41 42 44 48 48 46 48 49 54 49 32 32 40
30 40 40 36 32 30 34 40 35 32 27 23 28 31 32 36 39 46 56 63 46 54 63 68 64 64 64 60 51 48 45 43 44 46 45 48 46 45 47 49 49 50 50 47 37 38 36
Wind_Direction
270 268 268 263 253 246 246 244 226 222 225 224 222 222 205 191 198 205 206 213 217 218 215 210 208 210 211 213 213 213 215 215 215 215 217 217 215 214 214 215 212 214 225 240 220 227 227
258 252 249 248 246 241 241 238 224 220 225 227 224 219 211 184 196 199 204 215 216 217 215 212 210 209 210 212 214 213 216 217 218 218 217 216 217 215 216 222 221 222 225 228 223 221 232
246 243 240 241 239 235 232 232 223 221 218 220 225 218 215 203 189 189 193 201 209 213 213 217 211 211 211 211 213 212 214 216 218 219 219 216 216 215 216 220 222 223 232 239 237 233 226
236 235 237 239 236 232 229 226 220 215 210 203 205 220 217 196 187 200 192 198 210 207 209 213 213 212 212 211 211 213 213 214 215 217 217 215 217 219 218 219 222 226 229 233 238 235 230
229 229 230 234 231 228 226 222 221 214 200 208 206 212 210 192 183 192 194 198 191 201 209 208 218 213 213 212 212 212 213 214 216 216 217 213 216 218 217 220 226 226 231 232 242 253 229
225 223 227 229 228 223 219 219 218 212 197 198 208 210 211 189 183 186 201 196 203 202 192 194 209 208 213 211 213 214 212 213 213 213 214 217 217 218 214 220 222 228 238 236 242 238 239
222 219 221 231 224 220 219 220 218 207 198 196 204 203 210 200 196 191 194 186 184 184 191 189 202 222 214 212 211 214 215 214 213 212 212 216 221 222 223 230 231 230 242 233 232 234 237
217 218 213 231 223 220 219 219 218 207 191 193 193 198 203 206 209 195 193 192 195 203 199 202 211 213 208 208 213 211 214 215 216 217 215 221 221 218 223 221 223 226 232 225 230 235 239
212 217 211 219 223 220 214 214 213 203 198 186 185 186 183 195 202 199 191 193 192 190 191 202 208 202 205 204 207 212 212 214 216 219 220 223 225 221 224 229 227 223 223 217 230 244 244
210 214 209 227 218 218 212 211 211 207 201 193 178 176 181 186 194 187 190 196 190 182 189 199 201 202 198 197 199 204 210 212 215 217 219 222 223 224 226 229 230 230 234 238 231 239 245
209 209 204 216 210 213 212 210 209 207 199 193 185 177 182 193 186 188 190 193 187 187 200 193 194 202 203 198 202 202 205 208 212 217 221 223 225 224 226 230 232 233 237 242 238 244 243
207 208 205 220 205 210 211 210 207 208 204 194 199 173 176 180 182 179 186 184 186 194 202 208 202 203 203 199 199 201 203 204 208 213 216 220 222 224 225 226 228 233 235 236 235 244 247
202 203 203 213 206 210 209 208 206 207 207 197 189 173 180 175 184 180 183 188 194 198 200 201 201 202 200 201 196 201 203 200 204 208 214 216 219 222 223 226 228 233 238 240 236 237 246
197 190 192 206 207 209 208 205 207 206 206 203 190 173 178 177 180 183 183 191 198 204 204 203 197 203 208 199 200 197 201 200 200 203 212 215 220 222 228 231 235 239 241 242 245 249 251
192 187 192 211 204 205 206 204 206 205 205 203 192 168 170 179 181 187 184 192 200 201 204 201 203 201 201 202 198 203 202 201 203 202 209 210 217 224 224 227 231 231 235 239 243 246 247
193 196 204 207 202 204 206 204 204 204 206 206 191 170 170 178 179 183 189 193 201 206 202 203 191 192 201 201 202 209 205 202 203 205 209 213 216 218 222 226 228 229 232 235 238 240 242
187 184 197 209 208 209 205 206 208 207 210 209 194 172 170 177 180 189 194 197 201 204 205 207 201 194 194 200 202 200 204 211 211 206 209 213 217 219 222 224 226 232 233 235 238 239 242
187 188 192 195 200 208 208 208 210 210 215 209 209 202 173 180 185 190 195 197 201 205 209 210 215 216 217 213 207 203 210 214 213 213 215 215 216 219 223 229 230 233 234 235 236 237 242
191 189 186 187 196 207 208 208 212 212 216 209 215 199 178 178 185 190 197 194 199 201 209 211 213 214 215 216 211 213 215 219 219 218 219 221 225 226 226 225 226 230 233 236 238 241 240
189 186 180 198 194 205 206 209 211 214 215 213 215 204 182 177 189 189 194 198 199 202 205 204 212 213 213 215 219 220 216 223 225 225 226 230 231 234 237 240 244 246 248 249 249 249 250
193 184 187 187 198 204 208 208 211 212 214 216 220 210 193 180 189 193 196 197 199 201 201 201 206 208 214 215 216 219 221 224 230 225 229 232 234 235 235 234 231 231 232 236 239 243 244
192 186 180 192 196 201 204 211 209 213 216 217 222 219 203 184 183 193 193 192 199 201 203 204 206 211 213 217 222 226 224 223 228 230 228 232 235 234 234 234 236 237 237 241 244 247 252
188 189 180 191 197 200 201 206 210 208 214 217 222 225 214 196 188 192 195 191 192 199 203 205 207 205 210 214 209 212 217 222 220 222 224 231 234 230 229 231 233 235 242 246 250 252 259
180 186 184 194 192 203 204 198 200 207 212 215 219 226 224 204 194 192 196 193 198 198 200 203 206 207 213 210 208 213 213 213 211 212 217 222 226 231 233 238 243 245 244 246 249 251 254
185 192 195 194 200 201 200 202 208 205 206 213 214 223 226 214 194 192 194 195 198 200 202 196 194 198 199 206 215 215 215 215 215 218 221 223 222 226 229 237 243 244 244 247 252 255 256
195 189 202 198 207 210 212 219 226 224 226 213 209 215 224 218 205 192 191 196 199 200 198 196 200 202 204 212 213 210 212 211 213 214 218 222 226 232 236 242 246 246 247 253 257 259 257
187 187 191 200 206 206 208 216 221 227 230 216 207 211 219 226 215 198 191 192 203 206 203 203 203 205 206 210 216 219 218 219 223 228 230 233 236 238 241 245 248 249 257 256 258 266 265
192 183 189 201 204 204 208 206 207 209 207 204 205 207 216 226 217 207 198 193 197 206 207 205 207 211 214 212 216 221 226 223 228 233 235 238 241 242 244 249 248 248 253 261 262 253 255
189 186 188 195 208 200 203 206 205 204 199 193 195 202 209 221 219 216 206 202 194 206 209 210 210 214 216 219 218 222 224 225 226 234 236 238 240 242 244 248 254 255 256 256 251 249 247
Height
5484 5483 5485 5487 5489 5492 5495 5499 5504 5509 5515 5524 5534 5546 5563 5582 5597 5613 5629 5641 5655 5669 5682 5696 5706 5715 5727 5739 5751 5761 5767 5774 5781 5787 5794 5800 5806 5811 5815 5819 5824 5828 5833 5836 5840 5845 5849
5469 5471 5472 5475 5478 5481 5485 5490 5495 5501 5508 5515 5524 5539 5550 5568 5586 5606 5621 5634 5648 5661 5673 5687 5698 5708 5720 5732 5743 5753 5759 5767 5776 5783 5789 5794 5800 5806 5811 5815 5819 5824 5827 5830 5834 5838 5842
5455 5458 5461 5464 5468 5472 5476 5480 5487 5493 5501 5509 5518 5529 5543 5562 5583 5596 5612 5623 5638 5654 5665 5679 5692 5703 5711 5726 5733 5742 5751 5760 5768 5777 5784 5790 5796 5802 5808 5811 5815 5819 5822 5825 5828 5831 5835
5441 5445 5448 5453 5457 5462 5467 5471 5478 5485 5493 5501 5514 5523 5536 5554 5572 5588 5602 5614 5630 5646 5658 5671 5684 5693 5702 5711 5722 5733 5743 5751 5760 5769 5775 5782 5788 5794 5799 5804 5810 5814 5815 5819 5824 5825 5829
5425 5431 5436 5442 5447 5453 5458 5463 5469 5476 5484 5493 5504 5512 5529 5544 5563 5581 5596 5611 5623 5638 5652 5662 5669 5682 5692 5701 5714 5723 5734 5744 5754 5763 5769 5774 5780 5786 5793 5799 5803 5805 5808 5817 5819 5821 5824
5412 5419 5425 5432 5438 5444 5450 5455 5461 5468 5477 5489 5495 5508 5520 5539 5560 5575 5592 5604 5615 5627 5637 5653 5656 5664 5680 5698 5709 5715 5726 5735 5744 5753 5761 5767 5772 5779 5786 5791 5795 5801 5806 5814 5816 5818 5820
5401 5408 5417 5421 5429 5436 5443 5448 5453 5462 5470 5478 5487 5502 5518 5537 5550 5567 5581 5587 5590 5598 5615 5634 5644 5672 5677 5688 5697 5705 5716 5726 5733 5742 5752 5755 5765 5773 5784 5789 5793 5797 5802 5806 5809 5810 5814
5390 5397 5406 5410 5421 5427 5435 5440 5446 5454 5462 5475 5486 5499 5517 5532 5545 5561 5568 5576 5603 5618 5620 5632 5644 5654 5665 5677 5687 5695 5707 5718 5728 5737 5745 5751 5758 5769 5774 5778 5784 5791 5794 5800 5802 5804 5809
5381 5389 5397 5403 5413 5420 5428 5432 5438 5446 5454 5464 5477 5497 5510 5525 5538 5550 5562 5577 5589 5599 5610 5623 5631 5641 5656 5668 5678 5688 5700 5710 5720 5728 5737 5746 5755 5762 5768 5773 5779 5785 5789 5793 5798 5800 5802
5374 5379 5386 5393 5403 5414 5421 5426 5431 5437 5448 5457 5469 5484 5500 5515 5533 5541 5555 5569 5583 5597 5609 5617 5620 5630 5642 5654 5665 5678 5690 5702 5712 5722 5730 5736 5745 5753 5760 5766 5773 5777 5783 5787 5791 5794 5794
5365 5370 5379 5385 5393 5406 5415 5420 5424 5432 5441 5450 5460 5478 5495 5511 5524 5540 5554 5567 5579 5592 5594 5602 5612 5622 5633 5647 5661 5666 5681 5693 5705 5718 5725 5731 5737 5747 5753 5759 5766 5771 5776 5779 5785 5787 5789
5358 5362 5372 5378 5386 5399 5409 5413 5418 5425 5434 5445 5454 5471 5487 5502 5515 5531 5546 5561 5572 5577 5577 5584 5596 5608 5620 5634 5647 5660 5670 5682 5693 5703 5712 5721 5730 5737 5746 5749 5755 5761 5767 5772 5775 5780 5779
5350 5356 5364 5371 5381 5393 5402 5408 5414 5421 5428 5438 5449 5465 5481 5493 5510 5522 5535 5547 5554 5554 5565 5575 5586 5601 5615 5627 5638 5649 5662 5672 5681 5691 5701 5712 5720 5728 5733 5739 5746 5752 5758 5760 5765 5768 5774
5343 5353 5359 5365 5376 5387 5393 5402 5408 5415 5424 5431 5441 5459 5473 5487 5499 5512 5522 5532 5536 5544 5556 5567 5584 5600 5609 5621 5632 5642 5652 5663 5677 5688 5697 5705 5713 5721 5728 5733 5742 5745 5750 5751 5754 5762 5769
5338 5347 5354 5361 5369 5380 5388 5396 5402 5408 5418 5425 5435 5452 5464 5478 5489 5502 5507 5517 5525 5536 5551 5566 5577 5591 5599 5609 5623 5634 5654 5664 5672 5683 5690 5697 5705 5711 5718 5724 5730 5732 5738 5744 5747 5751 5758
5335 5344 5352 5357 5364 5373 5382 5391 5397 5404 5412 5418 5429 5441 5454 5468 5479 5492 5500 5511 5522 5536 5550 5564 5573 5581 5592 5607 5623 5636 5645 5657 5666 5674 5681 5689 5693 5701 5707 5711 5716 5725 5730 5733 5737 5740 5745
5331 5340 5347 5354 5361 5368 5377 5386 5393 5399 5406 5412 5422 5434 5447 5458 5471 5483 5494 5507 5520 5532 5546 5556 5569 5585 5598 5611 5623 5629 5642 5650 5657 5664 5670 5676 5684 5691 5694 5704 5710 5715 5719 5723 5728 5730 5733
5328 5335 5342 5350 5358 5364 5374 5383 5388 5395 5400 5407 5414 5428 5439 5453 5464 5475 5490 5502 5516 5527 5536 5554 5566 5582 5595 5605 5615 5624 5635 5645 5651 5657 5662 5666 5672 5681 5691 5694 5699 5703 5710 5712 5716 5721 5725
5325 5333 5342 5349 5354 5360 5367 5377 5383 5389 5394 5403 5408 5421 5432 5445 5457 5472 5486 5496 5511 5520 5534 5547 5560 5574 5588 5599 5608 5620 5628 5635 5643 5651 5656 5662 5663 5671 5674 5681 5688 5695 5699 5705 5707 5707 5715
5322 5330 5340 5346 5351 5356 5362 5370 5377 5384 5389 5396 5402 5412 5425 5439 5452 5465 5479 5490 5504 5514 5527 5542 5555 5563 5574 5586 5602 5610 5619 5627 5638 5645 5646 5649 5654 5664 5673 5685 5688 5690 5695 5698 5698 5697 5715
5318 5327 5336 5342 5348 5354 5361 5368 5375 5380 5386 5393 5399 5408 5421 5438 5449 5459 5471 5483 5495 5507 5520 5535 5546 5561 5572 5581 5592 5603 5611 5619 5623 5630 5635 5640 5649 5659 5664 5669 5673 5676 5681 5683 5684 5698 5692
5313 5323 5331 5340 5346 5351 5358 5363 5369 5377 5384 5391 5398 5406 5417 5432 5443 5453 5464 5474 5491 5506 5519 5533 5548 5559 5566 5579 5593 5600 5603 5608 5614 5620 5624 5632 5643 5648 5653 5658 5660 5663 5668 5674 5681 5688 5686
5311 5319 5328 5336 5344 5349 5357 5363 5369 5374 5382 5386 5393 5401 5411 5425 5438 5449 5459 5471 5487 5502 5519 5530 5541 5549 5560 5572 5581 5588 5595 5601 5607 5612 5620 5626 5633 5638 5642 5646 5646 5646 5667 5667 5673 5677 5684
5307 5314 5323 5330 5339 5346 5351 5358 5364 5370 5378 5385 5393 5399 5408 5421 5433 5447 5457 5468 5483 5498 5509 5521 5531 5543 5554 5562 5567 5572 5578 5584 5590 5597 5606 5615 5623 5628 5633 5636 5634 5658 5652 5659 5660 5666 5668
5306 5312 5319 5326 5335 5341 5348 5354 5362 5370 5376 5384 5390 5396 5405 5417 5430 5443 5451 5464 5476 5486 5497 5509 5523 5534 5542 5549 5555 5560 5567 5573 5584 5592 5599 5607 5611 5615 5618 5623 5634 5636 5638 5643 5647 5656 5660
5303 5310 5317 5324 5329 5338 5346 5353 5359 5368 5373 5380 5388 5395 5401 5409 5423 5439 5448 5459 5469 5480 5491 5503 5513 5523 5532 5539 5547 5553 5560 5572 5578 5584 5591 5597 5602 5607 5611 5614 5619 5619 5628 5633 5639 5649 5649
5300 5307 5314 5320 5326 5335 5343 5349 5356 5365 5371 5379 5386 5393 5399 5406 5418 5431 5443 5453 5464 5475 5484 5495 5503 5513 5522 5531 5540 5549 5557 5565 5570 5577 5584 5588 5591 5596 5599 5603 5609 5613 5618 5627 5633 5640 5640
5298 5305 5312 5318 5325 5331 5340 5350 5357 5364 5370 5375 5382 5391 5396 5402 5413 5425 5438 5449 5457 5467 5477 5487 5495 5503 5514 5521 5529 5540 5547 5555 5561 5566 5571 5577 5582 5587 5594 5598 5602 5607 5608 5619 5627 5625 5622
5297 5303 5311 5318 5322 5329 5335 5344 5354 5361 5367 5373 5381 5389 5394 5400 5411 5420 5432 5441 5450 5460 5468 5478 5490 5497 5506 5512 5523 5529 5539 5546 5556 5558 5563 5567 5575 5581 5587 5594 5597 5599 5602 5602 5605 5610 5613